Regional Weather Roundup
Issued by NWS Wakefield, VA

Home | Current Version | Previous Version | Graphics & Text | Print | Product List | Glossary On
Versions: 1 2 3 4 5 6 7 8 9 10 11 12 13 14 15 16 17 18 19 20 21 22 23 24 25 26 27
000
ASUS41 KAKQ 290715
RWRAKQ

REGIONAL WEATHER ROUNDUP
NATIONAL WEATHER SERVICE WAKEFIELD VA
300 AM EDT FRI APR 29 2016

Note: "fair" indicates few or no clouds below 12,000 feet with no
significant weather and/or obstructions to visibility. * = Denotes
station may not report precipitation (e.g., rain,snow,etc.),
thunder or fog.

VAZ042-051-052>054-056-290800-
NORTHERN VIRGINIA

CITY           SKY/WX    TMP DP  RH WIND       PRES   REMARKS
WASH NATIONAL  CLOUDY    48  45  89 NE12      30.00F
DULLES         CLOUDY    46  45  96 NE6       30.00S FOG
FORT BELVOIR   CLOUDY    46  46 100 VRB2      30.00S
QUANTICO       CLOUDY    50  47  89 NE9       30.00S
FREDERICKSBRG* CLOUDY    49  49 100 NE5       29.98F
STAFFORD*      CLOUDY    48  47  95 N5        30.02F FOG
WARRENTON      CLOUDY    48  44  85 NE5       29.98F FOG
CULPEPER*      CLOUDY    49  48  99 CALM      30.00S FOG
MANASSAS*      CLOUDY    46  46 100 CALM      30.00S
LEESBURG*      CLOUDY    46  46 100 NE5       30.01S FOG
WINCHESTER     CLOUDY    46  45  93 CALM      29.97F FOG
FRONT ROYAL*   CLOUDY    45  45 100 NE5       29.96F
LURAY*         RAIN      46  46 100 NE3       29.96F
$$

VAZ048-049-060>072-079>083-290800-
CENTRAL AND SOUTH CENTRAL VIRGINIA

CITY           SKY/WX    TMP DP  RH WIND       PRES   REMARKS
RICHMOND       CLOUDY    50  50 100 N7        29.97R FOG
CHESTERFIELD*  CLOUDY    52  39  62 CALM      29.97S
PETERSBURG*    CLOUDY    55  55 100 N7        29.97R
HANOVER        CLOUDY    50  48  93 CALM      29.99S FOG
TAPPAHANNOCK*  CLOUDY    51  51 100 N5        29.98S FOG
QUINTON*       CLOUDY    51  51 100 N7        29.96R FOG
CHARLOTTSVILLE CLOUDY    51  49  92 NE9       29.96S FOG
GORDONSVILLE*  CLOUDY    50  50 100 NE3       29.97S FOG
ORANGE*        CLOUDY    50  50 100 CALM      29.98F FOG
LOUISA*        CLOUDY    54  54 100 NE6       29.95F FOG
BUMPASS*       CLOUDY    49  49 100 NE3       29.97F
FARMVILLE*     CLOUDY    55  55 100 NE6       29.93F FOG
CREWE*         CLOUDY    54  54 100 NE3       29.94F
FORT PICKETT*  NOT AVBL
CHASE CITY*    CLOUDY    56  55  94 CALM      29.94R
CLARKSVILLE*   CLOUDY    59  59 100 E3        29.92F
SOUTH HILL*    CLOUDY    56  55  99 CALM      29.99F
LAWRENCEVILLE* CLOUDY    56  56 100 NE3       29.95F
EMPORIA*       CLOUDY    54  54 100 NW6       29.98R
$$

VAZ088>098-290800-
SOUTHEAST VIRGINIA

CITY           SKY/WX    TMP DP  RH WIND       PRES   REMARKS
NORFOLK        CLOUDY    57  54  89 NE15      29.92R
VIRGINIA BEACH CLOUDY    59  54  83 N13       29.90S
NORFOLK NAVAL  CLOUDY    57  56  96 NE7       29.93R
WEST POINT*    CLOUDY    52  51  97 N3        29.97S
SALUDA*        CLOUDY    53  53 100 NE7       29.95F
NEWPORT NEWS   CLOUDY    55  54  96 NE6       29.92F
LANGLEY AFB    CLOUDY    56  55  97 NE9       29.91F
FORT EUSTIS    CLOUDY    55  55 100 NE6       29.91F
WILLIAMSBURG*  CLOUDY    55  55 100 NE6       29.94F
HR EXEC AP*    CLOUDY    57  55  94 CALM      29.94R
FRANKLIN*      CLOUDY    56  55  95 CALM      29.94R
US460-WAKEFLD  CLOUDY    56  53  90 N7        29.94R
$$

VAZ020-022-025-037-045-290800-
WEST CENTRAL AND SOUTHWEST VIRGINIA

CITY           SKY/WX    TMP DP  RH WIND       PRES   REMARKS
STAUNTON*      FOG       52  52 100 N6        29.96F VSB 1
WAYNESBORO*    CLOUDY    51  50  96 MISG      29.95S
HOT SPRINGS VA CLOUDY    56  56 100 W13       29.96S
LYNCHBURG      CLOUDY    53  53 100 E3        29.96S
DANVILLE       CLOUDY    58  57  97 NE5       29.95R
SOUTH BOSTON*  CLOUDY    57  56  95 N5        29.95R
MARTINSVILLE   CLOUDY    57  56  94 CALM      29.98R
ROANOKE        CLOUDY    58  57  97 SE9       29.96F
BLACKSBURG     FOG       59  59 100 CALM      29.99R VSB 1/4
DUBLIN*        FAIR      57  57 100 CALM      29.98R
MARION*        FAIR      65  53  64 W15G26    30.00R
HILLSVILLE*    FAIR      63  54  72 W5        29.97S
RICHLANDS*     FAIR      61  31  33 W6        30.01S
WISE*          FAIR      59  45  58 W5        30.03S
ABINGDON*      FAIR      62  57  82 W5        30.00S
$$

MDZ021>025-VAZ099-100-290800-
SOUTHERN MARYLAND AND THE DELMARVA PENINSULA

CITY           SKY/WX    TMP DP  RH WIND       PRES   REMARKS
PATUXENT RIVER DRIZZLE   50  48  93 NE8       29.97F FOG
BAY BRIDGE APT NOT AVBL
LEONARDTOWN    CLOUDY    48  46  93 CALM      29.99F
DOVER          CLOUDY    47  47 100 NE7       30.00S FOG
GEORGETOWN     CLOUDY    49  48  97 E7        30.00S FOG
EASTON         CLOUDY   N/A N/A N/A E6        30.03F HAZE
CAMBRIDGE      CLOUDY    46  46 100 NE7       29.97F
SALISBURY      CLOUDY    49  48  97 NE12      29.97F FOG
OCEAN CITY     CLOUDY    50  48  93 NE9       29.98F FOG
WALLOPS ISLAND CLOUDY    51  50  96 NE17G25   29.94F
ACCOMACK*      CLOUDY    50   9  18 NE5       29.95R HAZE
$$

NCZ012>017-030>032-290800-
NORTH CENTRAL AND EASTERN NORTH CAROLINA

CITY           SKY/WX    TMP DP  RH WIND       PRES   REMARKS
ROANOKE RAPIDS LGT RAIN  55  55 100 NW3       29.94R
RALEIGH        DRZL/FOG  63  62  97 NE8       29.93R VSB 1
ELIZABETH CITY CLOUDY    57  55  93 CALM      29.90F
AHOSKIE*       CLOUDY    56  55  97 CALM      29.92S
EDENTON*       CLOUDY    59  59 100 NE5       29.92F
CURRITUCK*     CLOUDY    58  57  98 CALM      29.91F
KILL DEVIL HLS NOT AVBL
MANTEO         NOT AVBL
CAPE HATTERAS  RAIN      68  67  96 SW3       29.87F
TARBORO*       CLOUDY    59  58  97 NE6       29.93S FOG
GOLDSBORO      CLOUDY    66  66 100 NE5       29.87F
WASHINGTON     DRIZZLE   66  65  96 N6        29.89F
GREENVILLE     CLOUDY    64  64 100 NW3       29.93R
NEW BERN       CLOUDY    67  65  93 W5        29.90R
WILMINGTON     CLEAR     69  66  90 SW7       29.88S
$$

VAZ048-290800-
ELSEWHERE

CITY           SKY/WX    TMP DP  RH WIND       PRES   REMARKS
HARRISBURG PA  DRIZZLE   45  42  89 CALM      30.01S FOG
BALTIMORE      CLOUDY    47  43  86 N3        30.00F
ANNAPOLIS      CLOUDY    48  46  93 MISG      30.00S FOG
ANDREWS AFB    CLOUDY    46  45  95 NE6       29.99F FOG
PHILADELPHIA   CLOUDY    45  41  86 NE8       30.04S
HENDERSON NC   CLOUDY    59  59 100 NE5       29.93F
GREENSBORO     CLOUDY    61  60  97 NE7       29.93S
ROCKY MOUNT    CLOUDY    60  60 100 NE10      29.93R FOG
$$

VAZ100-290800-
MARINE

STATION/POSITION TIME  TEMP    WIND        PRES    WAVE   SWELL
                       AIR SEA DIR/SP/G            HT/PER HT/PER
                 (UTC) (F)     (DEG/KT/KT) (MB)    (FT/S) (FT/S)
BRANDYWINE LGT   0600   48      60/ 15/ 16 1015.5F
CAPE MAY NJ      0600   48 58   50/  5/  8 1015.2S
LEWES DE         0600   50 54   70/ 14/ 16 1015.4F
15NM E FENWICK I 0650   50 52              1014.4F   5/ 6
OCEAN-CITY-INLET 0600   49 54   60/  5/ 10 1014.9R
WACHAPREAGUE VA  0600   52 59   50/ 20/ 22 1013.2F
THOMAS POINT MD  0700   48 58   80/ 10/ 11 1017.2F
GOOSES REEF MD   0600   50 57   50/ 10/ 12 1016.7S   1/ 3
COVE POINT MD    0600   49      90/  8/ 11 1016.0F
SOLOMONS ISLAND  0600   50 60   30/  6/  8   N/A
BISHOPS HEAD MD  0600   51 58   60/  9/ 12 1014.3F
POTOMAC MD       0600   52 59   50/ 12/ 17 1014.0F   1/ 2
CAMBRIDGE MD     0600   50 61   60/  9/ 12 1015.0S
LEWISETTA VA     0600   52 60   50/  6/  8 1014.6F
RAPPAHANNOCK LGT 0600           40/ 16/ 19 1014.0F
STINGRAY PT      0600   55 61   40/ 12/ 16 1014.5S   2/ 3
YORK RVR RNG VA  0600   56      30/ 14/ 16 1013.0R
YORKTOWN VA      0600   56 62   20/  8/ 10 1013.7R
JAMESTOWN VA     0600   55 67  360/  6/  8   N/A
DOMINION TERM VA 0600   58      70/  1/  4 1013.2F
KIPTOPEKE VA     0600      60   70/ 12/ 16   N/A
CHES BAY BRIDGE  0600   55 59   40/ 12/ 13 1012.3F
CAPE HENRY VA    0600   55      30/ 12/ 14   N/A
CHESAPEAKE LGHT  0600   54      60/ 14/ 15 1013.4F
WILLOUBY STN VA  0600   57      40/  7/  8 1014.1F
CAPE HENRY BUOY  0612      56                N/A     3/ 5
CAPE CHARLES BUO 0626      56                N/A     3/ 5   2/ 7
OFFSHORE WE BUOY 0621      55                N/A     4/ 5   2/ 7
64NM E OF VA BCH 0650   56 54   30/  6/  8 1012.2F   3/ 6   3/ 6
DUCK PIER NC     0600   56 66   10/ 20/ 22 1012.3F
44100 DUCK FRF   0624      59                N/A     3/ 5
44056 DUCK FRF   0611      58                N/A     3/ 3
OREGON INLET NC  0600   58 70  360/ 10/ 14 1012.0F
HATTERAS NC      0600   68 70  250/  5/  7 1011.4F
DIAMOND SHLS NC  0650   71 71  260/ 10/ 14 1011.6F   4/ 5   2/ 5
CAPE LOOKOUT NC  0700   69     280/  4/  4 1011.8F
$$




USA.gov is the U.S. government's official web portal to all federal, state and local government web resources and services.